Location: B�retswil
(47.3376°N, 8.8534°E)
Time: 03:31:49
(UTC+00:00)

Okean 1 - Pass Details

Date: 03 March 2021
Orbit: 538 x 554 km, 82.5° (Epoch: 16 April)

Event Time Altitude Azimuth Distance (km) Brightness Sun altitude
Rises 17:53:40 0° 353° (N) 2,732 7.0 -7.7°
Reaches altitude 10° 17:55:51 10° 357° (N) 1,836 6.0 -8.1°
Maximum altitude 17:59:52 63° 78° (ENE) 623 3.3 -8.8°
Drops below altitude 10° 18:03:51 10° 161° (SSE) 1,828 5.8 -9.4°
Sets 18:06:02 0° 164° (SSE) 2,719 6.7 -9.8°
